Showing default

NANOFF B, 58755

Orbit data source: Space-Track

NANOFF B, 58755 is a payload satellite owned by TUB (DE) in SSO that was launched on Fri, 01 Dec 2023 UTC via an FALCON 9 launch vehicle from the Air Force Western Test Range (AFWTR). Payload-class satellites include a variety of spacecraft equipped with specific instruments for various scientific and technological missions. These include communications satellites like Starlink; space stations such as the ISS; scientific satellites like the Hubble; Earth observation satellites from companies like Planet Labs, Umbra, and HawkEye 360; GPS; miniature CubeSats for education and research; and military/defense satellites.

Loading next visibility...
Identifier
58755, 2023-185S
Orbit
SSO
Country
Flag of DEDE / GER
Related business
Manufacturer
TUB
Mission
Operational Amateur Technology
Bus & Motor
CUBESAT 2U, Unknown motor
Mass
2.7 kg wet, 2.7 kg dry
Launch date (UTC)
2023-12-01 (3 years ago)
Launch vehicle
FALCON 9
Launch site
Air Force Western Test Range (AFWTR)
Object type
Payload
Rocket body
Debris
Shape & HBR
Box + 2 Pan, 0.3 m
Radar Cross Section
0.046 m², Medium (>0.1 m² and < 1m²)

Expand to show TLE details & history
Last TLE update: 9 hours ago

TLE from 9 hours ago
0 NANOFF B
1 58755U 23185S   26248.23922547  .00001488  00000-0  88515-4 0  9997
2 58755  97.5193 314.5790 0013055  35.9860 324.2248 15.12733842145977
Epoch: 2026-09-05T05:44Z
TLE epoch observation values (Epoch: 2026-09-05T05:44:29.080Z)
Latitude
0.00003°
Longitude
-115.89372°
Altitude
523.632 km
Speed
7.605 km/s
True Right ascension
20h 58m 18s
True Declination
0° 00' 00"
Sunlit
Object was in full shadow at epoch
Visualization orbit readout
Latitude
Unknown
Longitude
Unknown
Altitude
Unknown
Speed
Unknown
Apparent Right ascension
Unknown
Apparent Declination
Unknown
Sunlit
N/A
Visualization observer readout
Local Sidereal Time
06:58:19
Azimuth
Unknown
Elevation
Unknown
Doppler factor
Unknown
Orbital elements
Apogee altitude
533.859 km
Perigee altitude
515.836 km
Semi-major axis
6,902.984 km
Eccentricity
0.00131
Inclination
97.5193°
RAAN
314.579°
Arg. of periapsis
35.986°
True anomaly
324.13723°
Mean anomaly
324.2248°
Eccentric anomaly
324.18103°
Mean motion
3.78432 °/min
Orbital period
95.13 mins
BSTAR
0.000088515
Loading maneuver chart data...
Computing Atmospheric mass density...
Loading historical data...
Loading historical data...
Loading historical data...
Loading historical data...
Loading historical data...
Loading historical data...
Loading historical data...

Documentation

Showing up to 5 results
|